Zurück zum Katalog

DELTA 1 DEB

AktivLEO
NORAD 10645·DEBRIS·🇺🇸 United States

Gestartet Jul 29, 1976 von Vandenberg Space Force Base

Loading…

Nächste Überflüge (nächste 24 Stunden)

TLE

AktuellSource: Space-Track

Epoche: Sep 13, 2026, 15:03 UTC

1 10645U 76077F   26256.62722493  .00000258  00000-0  34748-2 0  9992
2 10645 102.3862 150.2913 0224268  65.0664  10.1798 11.99214079165294

Verfolge DELTA 1 DEB in Echtzeit mit AllMySat

Download on the App Store